Hourly Data Report for May 19, 2020

TORONTO CITY
ONTARIO
Current Station Operator: ECCC - MSC

43°40'00.000" N
79°24'00.000" W
112.50 m
6158355
71508
XTO

Download Data

Hourly Data (May 2020)
Hourly Data Report for May 19, 2020
TIME
LST
Temp Definition
°C
Dew Point Definition
°C
Rel Hum Definition
%
Precip. Amount Definition
mm

Wind Dir Definition
10's deg

Wind Spd Definition
km/h
Visibility Definition
km
Stn Press Definition
kPa
Hmdx Definition


Wind Chill Definition


Weather Definition


00:00 15.3 -0.4 34 0.0       100.64     LegendNANA
01:00 15.3 -3.7 27 0.0       100.64     LegendNANA
02:00 14.9 -6.2 23 0.0       100.64     LegendNANA
03:00 14.6 -6.4 23 0.0       100.66     LegendNANA
04:00 13.7 -5.6 26 0.0       100.71     LegendNANA
05:00 13.3 -4.9 28 0.0       100.77     LegendNANA
06:00 12.7 -4.0 31 0.0       100.86     LegendNANA
07:00 12.4 -4.1 31 0.0       100.93     LegendNANA
08:00 12.4 -3.9 32 0.0       100.96     LegendNANA
09:00 12.7 -3.6 32 0.0       100.99     LegendNANA
10:00 14.2 -2.6 31 0.0       101.02     LegendNANA
11:00 15.2 -2.0 31 0.0       101.03     LegendNANA
12:00 16.2 -1.6 29 0.0       101.04     LegendNANA
13:00 15.2 -0.7 34 0.0       101.01     LegendNANA
14:00 15.0 -0.4 35 0.0       100.99     LegendNANA
15:00 15.7 0.9 37 0.0       100.97     LegendNANA
16:00 16.4 0.3 34 0.0       100.96     LegendNANA
17:00 16.7 -0.1 32 0.0       100.92     LegendNANA
18:00 17.0 0.1 32 0.0       100.92     LegendNANA
19:00 17.1 0.7 33 0.0       100.95     LegendNANA
20:00 17.3 1.0 33 0.0       101.00     LegendNANA
21:00 17.4 1.1 33 0.0       101.06     LegendNANA
22:00 17.3 1.5 35 0.0       101.08     LegendNANA
23:00 16.6 2.3 38 0.0       101.09     LegendNANA

Notes on Data Quality.

Legend

  • E = Estimated
  • M = Missing
  • NA = Not Available*
  • [empty] = Indicates an unobserved value
Date modified: